Yao current weather conditions

sailwx.info

Wind from 020 at 2 knots

Air temperature 5.0° C
Visibility: greater than 5.4 NM
Dewpoint -4.0° C

Last reported at 2017-Jan-21 10:00 UTC.
Time now 2017-Jan-21 23:35 UTC

Location: N 34°36' E 135°36'.
View on Google Maps.

See reports from other nearby stations

  
Tides and Currents Weather Stations Pressure Air Temp Water Temp Dewpoint Dewpoint Depression Visibility Wind Speed Wind Dir Waves Ship Positions
date/time (UTC)wind fromknots sea level pressurealtimeterstation pressurevisibilityair tempwater tempwave heightnotes
2017-Jan-21 10:00 020 2 5.4 5.0
2017-Jan-21 09:00 330 6 5.4 6.0
2017-Jan-21 08:00 320 6 5.4 7.0
2017-Jan-21 07:00 280 6 5.4 7.0
2017-Jan-21 06:00 310 8 5.4 7.0
2017-Jan-21 05:00 290 9 5.4 8.0
2017-Jan-21 04:00 310 7 5.4 7.0
2017-Jan-21 03:00 350 9 5.4 6.0
2017-Jan-21 02:00 320 7 5.4 6.0
2017-Jan-21 01:00 300 6 5.4 6.0
2017-Jan-21 00:00 290 6 5.4 4.0
2017-Jan-20 23:00 250 2 5.4 3.0
2017-Jan-20 10:00 280 14 5.4 6.0
2017-Jan-20 09:00 270 18 gusting 33 5.4 7.0
2017-Jan-20 08:00 280 12 5.4 6.0 Showers in the vicinity.
2017-Jan-20 07:00 280 20 5.4 7.0 Showers in the vicinity.
2017-Jan-20 06:00 270 6 gusting 20 4.3 6.0 Light rain showers.
2017-Jan-20 05:00 270 11 5.4 9.0 Showers in the vicinity.
2017-Jan-20 04:00 260 4 5.4 8.0
2017-Jan-20 03:00 5.4 7.0
2017-Jan-20 02:00 130 5 5.4 4.0
2017-Jan-20 01:00 5.4 4.0 Light rain showers.
2017-Jan-20 00:00 5.4 3.0 Showers in the vicinity.
2017-Jan-19 23:00 310 6 5.4 3.0